CZ-2D DEB, 44612

Orbit data source: Space-Track

CZ-2D DEB, 44612 is space debris in SSO originally from a launch on Mon, 09 Oct 2017 UTC launched from the Jiuquan Satellite Launch Center, China (JSC). Debris objects in space refer to the collection of defunct objects orbiting the Earth. Examples of debris include non-operational satellites, rocket bodies, and fragments generated from explosions, collisions, or faulty payload assembly.

Loading next visibility...
Identifier
44612, 2017-060E
Orbit
SSO
Country
Flag of CNCN / PRC
Related business
Manufacturer
Unknown
Mission
Spacecraft
Bus & Motor
Unknown
Mass
Unknown
Launch date (UTC)
2017-10-09 (8 years ago)
Launch vehicle
Unknown
Launch site
Jiuquan Satellite Launch Center, China (JSC)
Object type
Payload
Rocket body
Debris
Shape & HBR
Unknown
Radar Cross Section
Small (<0.1 m²)

Expand to show TLE details & history
Last TLE update: 14 hours ago

TLE from 14 hours ago
0 CZ-2D DEB
1 44612U 17060E   25242.76439182  .00007231  00000-0  73347-3 0  9996
2 44612  97.5938 251.8208 0010464 354.6500   5.4606 14.91121133423550
Epoch: 2025-08-30T18:20Z
TLE epoch observation values (Epoch: 2025-08-30T18:20:43.453Z)
Latitude
0.00006°
Longitude
-2.55427°
Altitude
590.22 km
Speed
7.569 km/s
True Right ascension
16h 47m 16s
True Declination
0° 00' 00"
Sunlit
Object was in daylight at epoch
Visualization orbit readout
Latitude
Unknown
Longitude
Unknown
Altitude
Unknown
Speed
Unknown
Apparent Right ascension
Unknown
Apparent Declination
Unknown
Sunlit
N/A
Visualization observer readout
Local Sidereal Time
00:19:47
Azimuth
Unknown
Elevation
Unknown
Doppler factor
Unknown
Orbital elements
Apogee altitude
598.744 km
Perigee altitude
584.158 km
Semi-major axis
6,969.588 km
Eccentricity
0.00105
Inclination
97.5938°
RAAN
251.8208°
Arg. of periapsis
354.65°
True anomaly
5.47203°
Mean anomaly
5.4606°
Eccentric anomaly
5.46631°
Mean motion
3.7302 °/min
Orbital period
96.51 mins
BSTAR
0.00073347
Loading maneuver chart data...
Computing Atmospheric mass density...
Loading historical data...
Loading historical data...
Loading historical data...
Loading historical data...
Loading historical data...
Loading historical data...
Loading historical data...
Other satellites on launch #60 in the year 2017 (2017-10-09 UTC)

Documentation

Showing up to 5 results
|